When you browse on this site, cookies collect data to enhance your experience and personalize the content and advertising you see.
Visit our Privacy Policy to learn more. By continuing to use the site, you agree to this use of cookies and data.
  • en Belgique
  • Liste des pays
  • À 7 jours
  • Température de l'eau
  • Carte météo
  • Widgets météo
  • user-avatar
    Se connecter

    Météo par heure à Barinas

    Ce jour, 3 Avril, Vendredi

    Heure Température Précipitation Vent Pression Humidité
    00:00 +30°C° 0.4 mm 1 m/s 742 mmHg 61%
    01:00 +29°C° 0.4 mm 1 m/s 742 mmHg 64%
    02:00 +29°C° 0.4 mm 1 m/s 742 mmHg 66%
    03:00 +29°C° 0.4 mm 1 m/s 741 mmHg 68%
    04:00 +28°C° 0.4 mm 1 m/s 741 mmHg 70%
    05:00 +29°C° 0.3 mm 1 m/s 742 mmHg 68%
    06:00 +29°C° 0.3 mm 1 m/s 743 mmHg 67%
    07:00 +30°C° 0.3 mm 1 m/s 743 mmHg 66%
    08:00 +31°C° 0.8 mm 2 m/s 743 mmHg 63%
    09:00 +32°C° 0.8 mm 2 m/s 743 mmHg 60%
    10:00 +34°C° 0.8 mm 3 m/s 743 mmHg 57%
    11:00 +35°C° 0.5 mm 3 m/s 742 mmHg 51%
    12:00 +36°C° 0.5 mm 3 m/s 742 mmHg 46%
    13:00 +37°C° 0.5 mm 3 m/s 741 mmHg 40%
    14:00 +37°C° 0.1 mm 3 m/s 741 mmHg 40%
    15:00 +37°C° 0.1 mm 3 m/s 740 mmHg 40%
    16:00 +37°C° 0.1 mm 2 m/s 739 mmHg 40%
    17:00 +36°C° 0.1 mm 2 m/s 740 mmHg 44%
    18:00 +35°C° 0.1 mm 2 m/s 740 mmHg 47%
    19:00 +32°C° 0.1 mm 1 m/s 741 mmHg 51%
    20:00 +32°C° 0.2 mm 1 m/s 741 mmHg 55%
    21:00 +31°C° 0.2 mm 1 m/s 742 mmHg 58%
    22:00 +30°C° 0.2 mm 1 m/s 742 mmHg 62%
    23:00 +29°C° 0.4 mm 1 m/s 742 mmHg 67%

    Demain, 4 Avril, Samedi

    Heure Température Précipitation Vent Pression Humidité
    00:00 +29°C° 0.4 mm 2 m/s 742 mmHg 72%
    01:00 +28°C° 0.4 mm 3 m/s 741 mmHg 77%
    02:00 +28°C° 0.1 mm 3 m/s 741 mmHg 79%
    03:00 +28°C° 0.1 mm 3 m/s 741 mmHg 80%
    04:00 +27°C° 0.1 mm 3 m/s 741 mmHg 82%
    05:00 +27°C° 0.1 mm 3 m/s 742 mmHg 82%
    06:00 +27°C° 0.1 mm 3 m/s 742 mmHg 81%
    07:00 +27°C° 0.1 mm 3 m/s 742 mmHg 81%
    08:00 +28°C° 0.1 mm 2 m/s 743 mmHg 79%
    09:00 +28°C° 0.1 mm 2 m/s 743 mmHg 77%
    10:00 +29°C° 0.1 mm 2 m/s 744 mmHg 75%
    11:00 +31°C° 0 mm 2 m/s 743 mmHg 66%
    12:00 +34°C° 0 mm 2 m/s 742 mmHg 58%
    13:00 +35°C° 0 mm 2 m/s 741 mmHg 49%
    14:00 +36°C° 0 mm 2 m/s 740 mmHg 46%
    15:00 +36°C° 0 mm 1 m/s 740 mmHg 43%
    16:00 +36°C° 0 mm 1 m/s 739 mmHg 41%
    17:00 +35°C° 0.2 mm 1 m/s 740 mmHg 48%
    18:00 +34°C° 0.2 mm 2 m/s 740 mmHg 56%
    19:00 +31°C° 0.2 mm 2 m/s 740 mmHg 63%
    20:00 +30°C° 0.3 mm 2 m/s 741 mmHg 67%
    21:00 +29°C° 0.3 mm 1 m/s 741 mmHg 71%
    22:00 +29°C° 0.3 mm 1 m/s 742 mmHg 75%
    23:00 +28°C° 0.4 mm 1 m/s 742 mmHg 76%

    Après-demain, 5 Avril, Dimanche

    Heure Température Précipitation Vent Pression Humidité
    00:00 +28°C° 0.4 mm 1 m/s 741 mmHg 77%
    01:00 +28°C° 0.4 mm 1 m/s 741 mmHg 78%
    02:00 +27°C° 0.2 mm 1 m/s 741 mmHg 78%
    03:00 +27°C° 0.2 mm 1 m/s 741 mmHg 77%
    04:00 +27°C° 0.2 mm 1 m/s 741 mmHg 76%
    05:00 +28°C° 0 mm 1 m/s 741 mmHg 72%
    06:00 +29°C° 0 mm 1 m/s 742 mmHg 68%
    07:00 +28°C° 0 mm 0 m/s 742 mmHg 64%
    08:00 +32°C° 0 mm 1 m/s 743 mmHg 56%
    09:00 +36°C° 0 mm 2 m/s 743 mmHg 47%
    10:00 +38°C° 0 mm 2 m/s 744 mmHg 39%
    11:00 +39°C° 0 mm 2 m/s 743 mmHg 37%
    12:00 +39°C° 0 mm 3 m/s 741 mmHg 36%
    13:00 +40°C° 0 mm 3 m/s 740 mmHg 34%
    14:00 +40°C° 0 mm 3 m/s 740 mmHg 34%
    15:00 +40°C° 0 mm 3 m/s 740 mmHg 34%
    16:00 +40°C° 0 mm 3 m/s 739 mmHg 34%
    17:00 +38°C° 0 mm 2 m/s 740 mmHg 38%
    18:00 +36°C° 0 mm 2 m/s 740 mmHg 43%
    19:00 +35°C° 0 mm 2 m/s 741 mmHg 47%
    20:00 +34°C° 0 mm 2 m/s 741 mmHg 50%
    21:00 +32°C° 0 mm 2 m/s 742 mmHg 52%
    22:00 +32°C° 0 mm 1 m/s 742 mmHg 54%
    23:00 +31°C° 0 mm 1 m/s 742 mmHg 55%

    6 Avril, Lundi

    Heure Température Précipitation Vent Pression Humidité
    00:00 +31°C° 0 mm 1 m/s 742 mmHg 55%
    01:00 +30°C° 0 mm 1 m/s 741 mmHg 56%
    02:00 +30°C° 0 mm 1 m/s 741 mmHg 55%
    03:00 +30°C° 0 mm 1 m/s 742 mmHg 55%
    04:00 +30°C° 0 mm 1 m/s 742 mmHg 54%
    05:00 +30°C° 0 mm 2 m/s 742 mmHg 54%
    06:00 +31°C° 0 mm 2 m/s 743 mmHg 55%
    07:00 +31°C° 0 mm 3 m/s 743 mmHg 55%
    08:00 +34°C° 0 mm 3 m/s 744 mmHg 51%
    09:00 +35°C° 0 mm 3 m/s 744 mmHg 47%
    10:00 +37°C° 0 mm 4 m/s 744 mmHg 43%
    11:00 +38°C° 0 mm 3 m/s 743 mmHg 41%
    12:00 +38°C° 0 mm 3 m/s 742 mmHg 40%
    13:00 +38°C° 0 mm 3 m/s 741 mmHg 38%
    14:00 +39°C° 0 mm 3 m/s 741 mmHg 37%
    15:00 +39°C° 0 mm 2 m/s 740 mmHg 35%
    16:00 +40°C° 0 mm 2 m/s 740 mmHg 33%
    17:00 +38°C° 0 mm 2 m/s 740 mmHg 38%
    18:00 +36°C° 0 mm 2 m/s 741 mmHg 43%
    19:00 +35°C° 0 mm 2 m/s 741 mmHg 48%
    20:00 +34°C° 0 mm 2 m/s 742 mmHg 51%
    21:00 +32°C° 0 mm 1 m/s 742 mmHg 53%
    22:00 +32°C° 0 mm 1 m/s 743 mmHg 56%
    23:00 +31°C° 0 mm 1 m/s 743 mmHg 56%

    7 Avril, Mardi

    Heure Température Précipitation Vent Pression Humidité
    00:00 +31°C° 0 mm 1 m/s 742 mmHg 56%
    01:00 +31°C° 0 mm 1 m/s 742 mmHg 56%
    02:00 +30°C° 0 mm 1 m/s 742 mmHg 56%
    03:00 +30°C° 0 mm 1 m/s 742 mmHg 56%
    04:00 +30°C° 0 mm 1 m/s 742 mmHg 56%
    05:00 +30°C° 0 mm 2 m/s 743 mmHg 56%
    06:00 +31°C° 0 mm 2 m/s 743 mmHg 57%
    07:00 +31°C° 0 mm 3 m/s 744 mmHg 57%
    08:00 +34°C° 0 mm 3 m/s 744 mmHg 52%
    09:00 +35°C° 0 mm 3 m/s 744 mmHg 48%
    10:00 +37°C° 0 mm 3 m/s 744 mmHg 43%
    11:00 +38°C° 0 mm 3 m/s 744 mmHg 41%
    12:00 +38°C° 0 mm 2 m/s 743 mmHg 39%
    13:00 +39°C° 0 mm 2 m/s 742 mmHg 37%
    14:00 +39°C° 0 mm 2 m/s 741 mmHg 35%
    15:00 +40°C° 0 mm 2 m/s 741 mmHg 33%
    16:00 +40°C° 0 mm 2 m/s 740 mmHg 32%
    17:00 +38°C° 0 mm 2 m/s 741 mmHg 36%
    18:00 +37°C° 0 mm 2 m/s 741 mmHg 40%
    19:00 +35°C° 0 mm 2 m/s 742 mmHg 44%
    20:00 +33°C° 0.3 mm 1 m/s 742 mmHg 49%
    21:00 +32°C° 0.3 mm 1 m/s 743 mmHg 55%
    22:00 +31°C° 0.3 mm 1 m/s 743 mmHg 60%
    23:00 +30°C° 0.1 mm 1 m/s 743 mmHg 61%

    8 Avril, Mercredi

    Heure Température Précipitation Vent Pression Humidité
    00:00 +30°C° 0.1 mm 1 m/s 742 mmHg 62%
    01:00 +30°C° 0.1 mm 1 m/s 742 mmHg 64%
    02:00 +29°C° 0 mm 1 m/s 742 mmHg 64%
    03:00 +29°C° 0 mm 1 m/s 742 mmHg 64%
    04:00 +29°C° 0 mm 1 m/s 742 mmHg 64%
    05:00 +29°C° 0 mm 2 m/s 742 mmHg 64%
    06:00 +30°C° 0 mm 2 m/s 743 mmHg 64%
    07:00 +30°C° 0 mm 3 m/s 743 mmHg 63%
    08:00 +33°C° 0 mm 3 m/s 744 mmHg 57%
    09:00 +35°C° 0 mm 3 m/s 744 mmHg 50%
    10:00 +37°C° 0 mm 3 m/s 744 mmHg 44%
    11:00 +38°C° 0 mm 3 m/s 743 mmHg 41%
    12:00 +39°C° 0 mm 3 m/s 742 mmHg 38%
    13:00 +40°C° 0 mm 2 m/s 741 mmHg 35%
    14:00 +40°C° 0 mm 2 m/s 741 mmHg 33%
    15:00 +41°C° 0 mm 2 m/s 740 mmHg 30%
    16:00 +41°C° 0 mm 2 m/s 739 mmHg 28%
    17:00 +39°C° 0 mm 2 m/s 740 mmHg 33%
    18:00 +37°C° 0 mm 2 m/s 740 mmHg 37%
    19:00 +36°C° 0 mm 2 m/s 741 mmHg 42%
    20:00 +34°C° 0.1 mm 1 m/s 742 mmHg 45%
    21:00 +33°C° 0.1 mm 1 m/s 742 mmHg 49%
    22:00 +31°C° 0.1 mm 1 m/s 743 mmHg 53%
    23:00 +31°C° 0.2 mm 1 m/s 742 mmHg 55%
    Voir plus